Location: Burgwalden
(48.2830°N, 10.7576°E)
Time: 01:25:37
(UTC+00:00)

CZ-2D R/B - Pass Details

Date: 26 September 2023
Orbit: 790 x 844 km, 98.8° (Epoch: 04 December)

Event Time Altitude Azimuth Distance (km) Brightness Sun altitude
Rises 01:38:20 0° 12° (NNE) 3,408 6.1 -32.8°
Reaches altitude 10° 01:40:44 10° 9° (N) 2,464 5.2 -32.6°
Enters shadow 01:44:15 40° 353° (N) 1,225 3.2 -32.1°
